Details for Ryanair at LFOB




Go Back


Latest METAR
Local Time

LFOB 280100Z AUTO 27008KT 240V010 6000 // FEW015/// SCT026/// BKN042/// ///CB 18/16 Q1016

28/05/2018, 03:28:55

Description
Results
Ryanair Logo
Number of Pilots based at LFOB
0 Pilots Based here
Number of Ryanair Flights Departed from LFOB
1 Flights Departed
Number of Ryanair Flights Arrived at LFOB
1 Flights Arrived
Number of Ryanair Schedules Departing from LFOB
81 Schedules
Number of Ryanair Schedules Arriving at LFOB
74 Schedules
Number of Ryanair Schedules Departing from LFOB availible today
25 Schedules Today
Number of Ryanair Schedules Arriving at LFOB availible today
25 Schedules Today
Average Landing Rate at LFOB
-203 fpm
Ryanair Average Landing Rate at LFOB
-171 fpm
Total Fuel Purchased at LFOB by Ryanair
4,910.59 kgs / 10,825.89 lbs

Pilots Based at LFOB


Pilot ID
Pilot Name
Pilot Rank
No. of Flights
No. of Flying Hours
There are no pilots assigned to this hub!   Will you be the first?
Content